When you browse on this site, cookies collect data to enhance your experience and personalize the content and advertising you see.
Visit our Privacy Policy to learn more. By continuing to use the site, you agree to this use of cookies and data.
  • In Latvia
  • List of Countries
  • For 7 days
  • Water Temperature
  • Satellite Maps
  • Weather Map
  • Weather Widgets
  • user-avatar
    Login

    Hourly Weather Ischgl

    Today, 26 May, Sunday

    Time Temperature Precipitation Wind Pressure Humidity
    00:00 +2°C° 0.4 mm 1 mps 572 mmHg 95%
    01:00 +1°C° 0 mm 1 mps 572 mmHg 94%
    02:00 +1°C° 0.2 mm 1 mps 572 mmHg 94%
    03:00 +1°C° 0.2 mm 1 mps 572 mmHg 94%
    04:00 +1°C° 0.2 mm 1 mps 572 mmHg 94%
    05:00 +2°C° 0.1 mm 1 mps 572 mmHg 94%
    06:00 +2°C° 0.1 mm 1 mps 573 mmHg 94%
    07:00 +3°C° 0 mm 1 mps 573 mmHg 93%
    08:00 +4°C° 0 mm 1 mps 573 mmHg 89%
    09:00 +5°C° 0 mm 1 mps 574 mmHg 86%
    10:00 +6°C° 0 mm 1 mps 574 mmHg 82%
    11:00 +6°C° 0.1 mm 1 mps 574 mmHg 81%
    12:00 +7°C° 0.1 mm 1 mps 575 mmHg 80%
    13:00 +7°C° 0 mm 1 mps 575 mmHg 80%
    14:00 +7°C° 0.2 mm 1 mps 575 mmHg 79%
    15:00 +8°C° 0.2 mm 1 mps 575 mmHg 77%
    16:00 +8°C° 0.2 mm 1 mps 575 mmHg 76%
    17:00 +7°C° 0.2 mm 1 mps 574 mmHg 80%
    18:00 +7°C° 0.2 mm 1 mps 574 mmHg 84%
    19:00 +6°C° 0.2 mm 1 mps 573 mmHg 88%
    20:00 +5°C° 0.1 mm 1 mps 573 mmHg 91%
    21:00 +3°C° 0.1 mm 0 mps 572 mmHg 94%
    22:00 +1°C° 0.1 mm 0 mps 572 mmHg 96%
    23:00 +1°C° 0 mm 0 mps 572 mmHg 97%

    Tomorrow, 27 May, Monday

    Time Temperature Precipitation Wind Pressure Humidity
    00:00 +1°C° 0 mm 0 mps 571 mmHg 97%
    01:00 0°C° 0 mm 0 mps 571 mmHg 97%
    02:00 +2°C° 0 mm 1 mps 571 mmHg 97%
    03:00 +2°C° 0 mm 1 mps 571 mmHg 97%
    04:00 +3°C° 0 mm 1 mps 571 mmHg 97%
    05:00 +4°C° 0 mm 1 mps 571 mmHg 95%
    06:00 +4°C° 0 mm 1 mps 571 mmHg 93%
    07:00 +5°C° 0 mm 1 mps 571 mmHg 91%
    08:00 +6°C° 0.1 mm 1 mps 572 mmHg 87%
    09:00 +7°C° 0.1 mm 1 mps 572 mmHg 84%
    10:00 +7°C° 0.1 mm 1 mps 572 mmHg 81%
    11:00 +7°C° 0.3 mm 1 mps 572 mmHg 82%
    12:00 +7°C° 0.3 mm 2 mps 572 mmHg 82%
    13:00 +7°C° 0.3 mm 2 mps 572 mmHg 83%
    14:00 +6°C° 0.5 mm 2 mps 571 mmHg 85%
    15:00 +6°C° 0.5 mm 2 mps 571 mmHg 87%
    16:00 +6°C° 0.5 mm 2 mps 571 mmHg 89%
    17:00 +5°C° 0.8 mm 2 mps 570 mmHg 91%
    18:00 +5°C° 0.8 mm 2 mps 570 mmHg 94%
    19:00 +4°C° 0.8 mm 2 mps 569 mmHg 97%
    20:00 +4°C° 1.3 mm 2 mps 569 mmHg 97%
    21:00 +4°C° 1.3 mm 2 mps 569 mmHg 98%
    22:00 +3°C° 1.3 mm 2 mps 569 mmHg 98%
    23:00 +3°C° 1.7 mm 2 mps 569 mmHg 98%

    Day after tomorrow, 28 May, Tuesday

    Time Temperature Precipitation Wind Pressure Humidity
    00:00 +4°C° 1.7 mm 1 mps 568 mmHg 98%
    01:00 +4°C° 1.7 mm 1 mps 568 mmHg 98%
    02:00 +2°C° 2 mm 2 mps 568 mmHg 98%
    03:00 +2°C° 2 mm 2 mps 568 mmHg 98%
    04:00 +2°C° 2 mm 2 mps 567 mmHg 98%
    05:00 +2°C° 1.3 mm 2 mps 567 mmHg 98%
    06:00 +2°C° 1.3 mm 2 mps 567 mmHg 97%
    07:00 +2°C° 1.3 mm 2 mps 567 mmHg 97%
    08:00 +2°C° 1.2 mm 2 mps 567 mmHg 97%
    09:00 +2°C° 1.2 mm 2 mps 567 mmHg 96%
    10:00 +2°C° 1.2 mm 2 mps 568 mmHg 96%
    11:00 +1°C° 1.3 mm 3 mps 568 mmHg 96%
    12:00 +1°C° 1.3 mm 3 mps 568 mmHg 96%
    13:00 0°C° 1.3 mm 3 mps 568 mmHg 96%
    14:00 0°C° 1.2 mm 3 mps 568 mmHg 96%
    15:00 0°C° 1.2 mm 3 mps 568 mmHg 96%
    16:00 0°C° 1.2 mm 3 mps 567 mmHg 96%
    17:00 -1°C° 1 mm 3 mps 568 mmHg 96%
    18:00 -1°C° 1 mm 3 mps 568 mmHg 96%
    19:00 -2°C° 1 mm 3 mps 568 mmHg 96%
    20:00 -2°C° 0.6 mm 2 mps 568 mmHg 96%
    21:00 -2°C° 0.6 mm 2 mps 568 mmHg 96%
    22:00 -3°C° 0.6 mm 2 mps 569 mmHg 96%
    23:00 -3°C° 0.6 mm 2 mps 569 mmHg 96%

    29 May, Wednesday

    Time Temperature Precipitation Wind Pressure Humidity
    00:00 -3°C° 0.6 mm 2 mps 569 mmHg 96%
    01:00 -3°C° 0.6 mm 2 mps 569 mmHg 97%
    02:00 -3°C° 0.5 mm 2 mps 569 mmHg 96%
    03:00 -4°C° 0.5 mm 3 mps 569 mmHg 96%
    04:00 -4°C° 0.5 mm 3 mps 569 mmHg 96%
    05:00 -4°C° 0.5 mm 3 mps 569 mmHg 96%
    06:00 -4°C° 0.5 mm 3 mps 570 mmHg 95%
    07:00 -4°C° 0.5 mm 3 mps 570 mmHg 94%
    08:00 -2°C° 0.4 mm 3 mps 571 mmHg 93%
    09:00 -2°C° 0.4 mm 3 mps 571 mmHg 92%
    10:00 -1°C° 0.4 mm 3 mps 571 mmHg 92%
    11:00 -1°C° 0.2 mm 3 mps 571 mmHg 91%
    12:00 0°C° 0.2 mm 3 mps 572 mmHg 90%
    13:00 0°C° 0.2 mm 3 mps 572 mmHg 89%
    14:00 0°C° 0.2 mm 3 mps 572 mmHg 88%
    15:00 +1°C° 0.2 mm 2 mps 572 mmHg 87%
    16:00 +2°C° 0.2 mm 2 mps 572 mmHg 87%
    17:00 +1°C° 0.1 mm 2 mps 572 mmHg 89%
    18:00 +1°C° 0.1 mm 2 mps 573 mmHg 91%
    19:00 +1°C° 0.1 mm 2 mps 573 mmHg 93%
    20:00 -1°C° 0.1 mm 2 mps 573 mmHg 95%
    21:00 -2°C° 0.1 mm 2 mps 573 mmHg 96%
    22:00 -3°C° 0.1 mm 2 mps 573 mmHg 98%
    23:00 -1°C° 0 mm 1 mps 573 mmHg 97%

    30 May, Thursday

    Time Temperature Precipitation Wind Pressure Humidity
    00:00 -1°C° 0 mm 1 mps 573 mmHg 97%
    01:00 -1°C° 0 mm 1 mps 573 mmHg 97%
    02:00 -2°C° 0 mm 1 mps 573 mmHg 97%
    03:00 -2°C° 0 mm 1 mps 573 mmHg 96%
    04:00 -3°C° 0 mm 1 mps 573 mmHg 95%
    05:00 -1°C° 0.1 mm 1 mps 573 mmHg 92%
    06:00 0°C° 0.1 mm 1 mps 574 mmHg 88%
    07:00 +1°C° 0.1 mm 1 mps 574 mmHg 84%
    08:00 +2°C° 0.4 mm 1 mps 575 mmHg 85%
    09:00 +2°C° 0.4 mm 1 mps 575 mmHg 87%
    10:00 +3°C° 0.4 mm 1 mps 575 mmHg 88%
    11:00 +3°C° 0.2 mm 2 mps 576 mmHg 86%
    12:00 +4°C° 0.2 mm 2 mps 576 mmHg 84%
    13:00 +5°C° 0.2 mm 2 mps 577 mmHg 83%
    14:00 +4°C° 0.2 mm 2 mps 577 mmHg 83%
    15:00 +4°C° 0.2 mm 2 mps 577 mmHg 84%
    16:00 +4°C° 0.2 mm 2 mps 576 mmHg 85%
    17:00 +4°C° 0.2 mm 2 mps 576 mmHg 88%
    18:00 +4°C° 0.2 mm 1 mps 576 mmHg 91%
    19:00 +3°C° 0.2 mm 1 mps 576 mmHg 94%
    20:00 +3°C° 0.2 mm 1 mps 576 mmHg 94%
    21:00 +3°C° 0.2 mm 1 mps 576 mmHg 95%
    22:00 +2°C° 0.2 mm 1 mps 576 mmHg 96%
    23:00 +2°C° 0.4 mm 1 mps 576 mmHg 96%

    31 May, Friday

    Time Temperature Precipitation Wind Pressure Humidity
    00:00 +2°C° 0.4 mm 1 mps 576 mmHg 96%
    01:00 +2°C° 0.4 mm 1 mps 576 mmHg 95%
    02:00 +2°C° 0.2 mm 1 mps 575 mmHg 96%
    03:00 +2°C° 0.2 mm 1 mps 575 mmHg 96%
    04:00 +2°C° 0.2 mm 1 mps 575 mmHg 97%
    05:00 +3°C° 0.1 mm 1 mps 575 mmHg 95%
    06:00 +3°C° 0.1 mm 1 mps 576 mmHg 93%
    07:00 +3°C° 0.1 mm 2 mps 576 mmHg 92%
    08:00 +3°C° 1.3 mm 2 mps 576 mmHg 92%
    09:00 +3°C° 1.3 mm 2 mps 576 mmHg 93%
    10:00 +3°C° 1.3 mm 2 mps 576 mmHg 93%
    11:00 +3°C° 1.1 mm 2 mps 576 mmHg 93%
    12:00 +3°C° 1.1 mm 2 mps 576 mmHg 92%
    13:00 +3°C° 1.1 mm 2 mps 577 mmHg 92%
    14:00 +3°C° 0.5 mm 2 mps 577 mmHg 91%
    15:00 +2°C° 0.5 mm 3 mps 577 mmHg 89%
    16:00 +2°C° 0.5 mm 3 mps 577 mmHg 88%
    17:00 +1°C° 0.7 mm 3 mps 577 mmHg 91%
    18:00 0°C° 0.7 mm 3 mps 577 mmHg 94%
    19:00 0°C° 0.7 mm 3 mps 577 mmHg 96%
    20:00 -1°C° 0 mm 2 mps 577 mmHg 97%
    21:00 -2°C° 0 mm 2 mps 577 mmHg 97%
    22:00 -1°C° 0 mm 1 mps 577 mmHg 98%
    23:00 -2°C° 0 mm 1 mps 577 mmHg 96%
    Show more